Hourly Weather Allieres

Today, 28 February, Sunday

Time Temperature Precipitation Wind Pressure Humidity
00:00 +6°C° 0 mm 1 mps 722 mmHg 82%
01:00 +5°C° 0 mm 1 mps 722 mmHg 81%
02:00 +5°C° 0 mm 1 mps 722 mmHg 80%
03:00 +5°C° 0 mm 1 mps 722 mmHg 79%
04:00 +5°C° 0 mm 1 mps 722 mmHg 80%
05:00 +5°C° 0 mm 1 mps 722 mmHg 81%
06:00 +5°C° 0 mm 1 mps 722 mmHg 82%
07:00 +6°C° 0 mm 1 mps 722 mmHg 78%
08:00 +8°C° 0 mm 1 mps 723 mmHg 74%
09:00 +8°C° 0 mm 2 mps 723 mmHg 70%
10:00 +10°C° 0 mm 2 mps 723 mmHg 67%
11:00 +11°C° 0 mm 3 mps 723 mmHg 64%
12:00 +13°C° 0 mm 4 mps 723 mmHg 60%
13:00 +13°C° 0 mm 4 mps 723 mmHg 60%
14:00 +13°C° 0 mm 4 mps 722 mmHg 60%
15:00 +13°C° 0 mm 4 mps 722 mmHg 60%
16:00 +12°C° 0 mm 4 mps 722 mmHg 67%
17:00 +10°C° 0 mm 3 mps 722 mmHg 74%
18:00 +8°C° 0 mm 3 mps 722 mmHg 81%
19:00 +8°C° 0 mm 3 mps 722 mmHg 81%
20:00 +8°C° 0 mm 3 mps 723 mmHg 81%
21:00 +7°C° 0 mm 3 mps 723 mmHg 81%
22:00 +7°C° 0 mm 3 mps 723 mmHg 80%
23:00 +7°C° 0 mm 3 mps 723 mmHg 79%

Tomorrow, 1 March, Monday

Time Temperature Precipitation Wind Pressure Humidity
00:00 +5°C° 0 mm 3 mps 723 mmHg 78%
01:00 +5°C° 0 mm 3 mps 723 mmHg 75%
02:00 +5°C° 0 mm 3 mps 723 mmHg 73%
03:00 +5°C° 0 mm 3 mps 722 mmHg 71%
04:00 +4°C° 0 mm 3 mps 723 mmHg 70%
05:00 +4°C° 0 mm 3 mps 723 mmHg 69%
06:00 +4°C° 0 mm 3 mps 723 mmHg 67%
07:00 +7°C° 0 mm 3 mps 723 mmHg 63%
08:00 +9°C° 0 mm 3 mps 723 mmHg 58%
09:00 +11°C° 0 mm 3 mps 723 mmHg 54%
10:00 +12°C° 0 mm 3 mps 724 mmHg 53%
11:00 +14°C° 0 mm 3 mps 724 mmHg 53%
12:00 +15°C° 0 mm 4 mps 724 mmHg 52%
13:00 +15°C° 0 mm 4 mps 724 mmHg 55%
14:00 +15°C° 0 mm 4 mps 723 mmHg 57%
15:00 +14°C° 0 mm 4 mps 723 mmHg 60%
16:00 +13°C° 0 mm 3 mps 723 mmHg 66%
17:00 +11°C° 0 mm 3 mps 723 mmHg 72%
18:00 +9°C° 0 mm 3 mps 723 mmHg 78%
19:00 +9°C° 0 mm 3 mps 723 mmHg 77%
20:00 +9°C° 0 mm 3 mps 724 mmHg 76%
21:00 +8°C° 0 mm 3 mps 724 mmHg 75%
22:00 +8°C° 0 mm 3 mps 724 mmHg 74%
23:00 +8°C° 0 mm 3 mps 724 mmHg 73%

Day after tomorrow, 2 March, Tuesday

Time Temperature Precipitation Wind Pressure Humidity
00:00 +8°C° 0 mm 3 mps 724 mmHg 72%
01:00 +8°C° 0 mm 3 mps 724 mmHg 71%
02:00 +8°C° 0 mm 3 mps 724 mmHg 70%
03:00 +8°C° 0 mm 3 mps 724 mmHg 69%
04:00 +8°C° 0 mm 3 mps 724 mmHg 69%
05:00 +8°C° 0 mm 3 mps 724 mmHg 68%
06:00 +8°C° 0 mm 3 mps 724 mmHg 68%
07:00 +9°C° 0 mm 3 mps 725 mmHg 66%
08:00 +10°C° 0 mm 3 mps 725 mmHg 64%
09:00 +11°C° 0 mm 3 mps 725 mmHg 62%
10:00 +13°C° 0 mm 3 mps 726 mmHg 59%
11:00 +16°C° 0 mm 3 mps 726 mmHg 56%
12:00 +17°C° 0 mm 3 mps 726 mmHg 54%
13:00 +17°C° 0 mm 3 mps 726 mmHg 56%
14:00 +17°C° 0 mm 3 mps 726 mmHg 57%
15:00 +17°C° 0 mm 3 mps 725 mmHg 59%
16:00 +14°C° 0 mm 3 mps 725 mmHg 66%
17:00 +12°C° 0 mm 3 mps 726 mmHg 74%
18:00 +10°C° 0 mm 3 mps 726 mmHg 81%
19:00 +10°C° 0 mm 3 mps 726 mmHg 80%
20:00 +10°C° 0 mm 3 mps 726 mmHg 80%
21:00 +9°C° 0 mm 3 mps 726 mmHg 79%
22:00 +9°C° 0 mm 3 mps 726 mmHg 79%
23:00 +9°C° 0 mm 3 mps 726 mmHg 78%

3 March, Wednesday

Time Temperature Precipitation Wind Pressure Humidity
00:00 +8°C° 0 mm 3 mps 726 mmHg 78%
01:00 +8°C° 0 mm 2 mps 726 mmHg 77%
02:00 +8°C° 0 mm 2 mps 726 mmHg 77%
03:00 +8°C° 0 mm 2 mps 726 mmHg 77%
04:00 +8°C° 0 mm 2 mps 726 mmHg 77%
05:00 +8°C° 0 mm 2 mps 726 mmHg 76%
06:00 +7°C° 0 mm 2 mps 726 mmHg 76%
07:00 +9°C° 0 mm 2 mps 726 mmHg 71%
08:00 +12°C° 0 mm 1 mps 726 mmHg 66%
09:00 +14°C° 0 mm 1 mps 726 mmHg 61%
10:00 +15°C° 0 mm 2 mps 726 mmHg 58%
11:00 +16°C° 0 mm 2 mps 726 mmHg 56%
12:00 +18°C° 0 mm 2 mps 726 mmHg 53%
13:00 +17°C° 0 mm 2 mps 725 mmHg 56%
14:00 +17°C° 0 mm 2 mps 725 mmHg 58%
15:00 +17°C° 0 mm 2 mps 724 mmHg 61%
16:00 +15°C° 0.1 mm 2 mps 724 mmHg 70%
17:00 +13°C° 0.1 mm 2 mps 724 mmHg 79%
18:00 +11°C° 0.1 mm 1 mps 723 mmHg 88%
19:00 +11°C° 0 mm 1 mps 724 mmHg 88%
20:00 +10°C° 0 mm 1 mps 724 mmHg 88%
21:00 +10°C° 0 mm 1 mps 724 mmHg 87%
22:00 +10°C° 0 mm 1 mps 723 mmHg 87%
23:00 +9°C° 0 mm 1 mps 723 mmHg 86%

4 March, Thursday

Time Temperature Precipitation Wind Pressure Humidity
00:00 +9°C° 0 mm 1 mps 723 mmHg 86%
01:00 +9°C° 0 mm 1 mps 722 mmHg 86%
02:00 +9°C° 0 mm 1 mps 722 mmHg 85%
03:00 +9°C° 0 mm 1 mps 722 mmHg 85%
04:00 +8°C° 0 mm 1 mps 721 mmHg 85%
05:00 +8°C° 0 mm 1 mps 721 mmHg 85%
06:00 +8°C° 0 mm 1 mps 721 mmHg 85%
07:00 +10°C° 0 mm 1 mps 721 mmHg 79%
08:00 +12°C° 0 mm 1 mps 721 mmHg 73%
09:00 +14°C° 0 mm 1 mps 721 mmHg 66%
10:00 +15°C° 0 mm 1 mps 721 mmHg 63%
11:00 +16°C° 0 mm 1 mps 721 mmHg 59%
12:00 +17°C° 0 mm 2 mps 720 mmHg 55%
13:00 +17°C° 0.2 mm 2 mps 720 mmHg 58%
14:00 +17°C° 0.2 mm 2 mps 719 mmHg 61%
15:00 +16°C° 0.2 mm 2 mps 718 mmHg 64%
16:00 +15°C° 0.4 mm 1 mps 718 mmHg 72%
17:00 +13°C° 0.4 mm 1 mps 718 mmHg 80%
18:00 +11°C° 0.4 mm 1 mps 718 mmHg 88%
19:00 +11°C° 0 mm 1 mps 718 mmHg 88%
20:00 +10°C° 0 mm 1 mps 718 mmHg 88%
21:00 +10°C° 0 mm 1 mps 718 mmHg 89%
22:00 +10°C° 0 mm 1 mps 718 mmHg 88%
23:00 +9°C° 0 mm 1 mps 718 mmHg 88%

5 March, Friday

Time Temperature Precipitation Wind Pressure Humidity
00:00 +9°C° 0 mm 1 mps 718 mmHg 88%
01:00 +9°C° 0.1 mm 1 mps 717 mmHg 89%
02:00 +8°C° 0.1 mm 1 mps 717 mmHg 90%
03:00 +8°C° 0.1 mm 1 mps 717 mmHg 91%
04:00 +8°C° 0 mm 1 mps 717 mmHg 92%
05:00 +8°C° 0 mm 1 mps 717 mmHg 92%
06:00 +8°C° 0 mm 1 mps 717 mmHg 93%
07:00 +9°C° 0.1 mm 1 mps 717 mmHg 91%
08:00 +10°C° 0.1 mm 1 mps 717 mmHg 89%
09:00 +11°C° 0.1 mm 1 mps 718 mmHg 88%
10:00 +12°C° 0.2 mm 2 mps 718 mmHg 84%
11:00 +13°C° 0.2 mm 2 mps 718 mmHg 79%
12:00 +12°C° 0.2 mm 3 mps 718 mmHg 75%
13:00 +12°C° 0.2 mm 3 mps 717 mmHg 75%
14:00 +12°C° 0.2 mm 3 mps 717 mmHg 75%
15:00 +12°C° 0.2 mm 3 mps 717 mmHg 76%
16:00 +11°C° 0.1 mm 3 mps 717 mmHg 80%
17:00 +9°C° 0.1 mm 2 mps 717 mmHg 85%
18:00 +8°C° 0.1 mm 2 mps 717 mmHg 90%
19:00 +8°C° 0.1 mm 2 mps 718 mmHg 90%
20:00 +7°C° 0.1 mm 2 mps 718 mmHg 91%
21:00 +8°C° 0.1 mm 1 mps 719 mmHg 91%
22:00 +8°C° 0 mm 1 mps 719 mmHg 92%
23:00 +8°C° 0 mm 1 mps 719 mmHg 92%
Show more